Location: Unspecified
(45.3999°N, 88.1269°W)
Time: 02:46:17
(UTC-05:00)

Cosmos 1674 - Visible Passes

Search period start: 17 October 2017 00:00
Search period end: 27 October 2017 00:00
Orbit: 497 x 523 km, 82.5° (Epoch: 16 October)

Date Brightness Start Highest point End Pass type
(mag) Time Alt. Az. Time Alt. Az. Time Alt. Az.
18 Oct 3.0 06:30:20 10° S 06:34:02 70° E 06:37:45 10° NNE visible
19 Oct 3.5 06:13:37 10° S 06:17:14 53° E 06:20:54 10° NNE visible
20 Oct 4.1 05:56:57 10° SSE 06:00:28 41° E 06:04:00 10° NNE visible
21 Oct 4.6 05:40:22 10° SSE 05:43:42 32° E 05:47:03 10° NNE visible
22 Oct 5.0 05:23:51 10° SSE 05:26:57 25° E 05:30:03 10° NNE visible
23 Oct 5.4 05:07:25 10° SE 05:10:12 20° E 05:12:59 10° NE visible
23 Oct 3.5 06:42:23 10° SW 06:45:37 28° WNW 06:48:53 10° NNW visible
24 Oct 5.7 04:51:07 10° SE 04:53:28 16° E 04:55:49 10° NE visible
24 Oct 3.2 06:25:20 10° SW 06:28:45 35° WNW 06:32:13 10° N visible
25 Oct 5.9 04:35:01 10° ESE 04:36:44 13° E 04:38:28 10° ENE visible
25 Oct 2.9 06:08:20 10° SSW 06:11:54 44° WNW 06:15:30 10° N visible
26 Oct 6.1 04:19:44 10° E 04:20:01 10° E 04:20:18 10° E visible
26 Oct 2.6 05:51:23 10° SSW 05:55:03 58° W 05:58:46 10° N visible
